Weather History for Diyarbakir, Turkey

Change the Weather History Date:

Monday, September 2, 2013

  Actual Average Record
Temperature  
Mean Temperature 82 °F -  
Max Temperature 101 °F 91 °F 103 °F (2014)
Min Temperature 64 °F 61 °F 57 °F (2001)
Cooling Degree Days 18    
Growing Degree Days 32 (Base 50)    
Moisture  
Dew Point 38 °F    
Average Humidity 21    
Maximum Humidity 37    
Minimum Humidity 4    
Precipitation  
Precipitation 0.00 in 0.01 in - ()
Sea Level Pressure  
Sea Level Pressure 29.83 in    
Wind  
Wind Speed 6 mph ()    
Max Wind Speed 20 mph    
Max Gust Speed -    
Visibility 12.0 miles    
Events      
Averages and records for this station are not official NWS values.
T = Trace of Precipitation, MM = Missing Value Source: Averaged Metar Reports

Daily Weather History Graph

Daily Weather History Graph

Search for Another Location

Airport:

Trip Planner

Search our weather history database for the weather conditions in past years. The results will help you decide how hot, cold, wet, or windy it might be!

Date:

Astronomy

Sep. 02, 2013 Rise Set
Actual Time 5:49 AM EEST 6:47 PM EEST
Civil Twilight 5:23 AM EEST 7:14 PM EEST
Nautical Twilight 4:51 AM EEST 7:45 PM EEST
Astronomical Twilight 4:18 AM EEST 8:18 PM EEST
Moon 2:48 AM EEST (9/2) 4:46 PM EEST (9/2)
Length of Visible Light 13h 50m
Length of Day
12h 57m
Waning Crescent, 9% of the Moon is Illuminated
Sep 2
Waning Crescent
Sep 5
New
Sep 12
First Quarter
Sep 19
Full
Sep 27
Last Quarter

Hourly Weather History & Observations

Time (EEST) Temp. Dew Point Humidity Pressure Visibility Wind Dir Wind Speed Gust Speed Precip Events Conditions
12:20 AM 78.8 °F 41.0 °F 26% 29.83 in - SE 3.5 mph - N/A   Clear
12:50 AM 78.8 °F 39.2 °F 24% 29.83 in - Variable 2.3 mph - N/A   Clear
1:20 AM 77.0 °F 41.0 °F 28% 29.83 in - East 4.6 mph - N/A   Clear
1:50 AM 73.4 °F 42.8 °F 33% 29.83 in - East 4.6 mph - N/A   Clear
2:20 AM 73.4 °F 42.8 °F 33% 29.83 in - Calm Calm - N/A   Clear
2:50 AM 71.6 °F 41.0 °F 33% 29.83 in - SE 2.3 mph - N/A   Clear
3:00 AM 72 °F 41 °F 22% 29.67 in 12 mi SE 2.3 mph - -  
3:20 AM 71.6 °F 41.0 °F 33% 29.83 in - Variable 1.2 mph - N/A   Clear
3:50 AM 69.8 °F 39.2 °F 33% 29.83 in - West 2.3 mph - N/A   Clear
4:20 AM 68.0 °F 39.2 °F 35% 29.83 in - WSW 5.8 mph - N/A   Clear
4:50 AM 68.0 °F 41.0 °F 37% 29.83 in - WSW 5.8 mph - N/A   Clear
5:20 AM 66.2 °F 39.2 °F 37% 29.86 in - WNW 6.9 mph - N/A   Clear
5:50 AM 68.0 °F 39.2 °F 35% 29.86 in - WNW 5.8 mph - N/A   Clear
6:20 AM 66.2 °F 39.2 °F 37% 29.86 in - WNW 3.5 mph - N/A   Clear
6:50 AM 71.6 °F 37.4 °F 29% 29.86 in - WSW 6.9 mph - N/A   Clear
7:20 AM 75.2 °F 39.2 °F 27% 29.86 in - WSW 4.6 mph - N/A   Clear
7:50 AM 80.6 °F 41.0 °F 24% 29.86 in - WNW 4.6 mph - N/A   Clear
8:20 AM 84.2 °F 44.6 °F 25% 29.89 in - Variable 1.2 mph - N/A   Clear
8:50 AM 86.0 °F 44.6 °F 23% 29.89 in - Variable 2.3 mph - N/A   Clear
9:00 AM 85 °F 42 °F 13% 29.73 in 12 mi SE 2.3 mph - -  
9:20 AM 86.0 °F 44.6 °F 23% 29.89 in - Variable 4.6 mph - N/A   Clear
9:50 AM 86.0 °F 44.6 °F 23% 29.89 in - Variable 3.5 mph - N/A   Clear
10:20 AM 89.6 °F 42.8 °F 20% 29.89 in - Variable 3.5 mph - N/A   Clear
10:50 AM 89.6 °F 42.8 °F 20% 29.89 in - ESE 5.8 mph - N/A   Clear
11:20 AM 91.4 °F 44.6 °F 20% 29.86 in - Variable 4.6 mph - N/A   Clear
11:50 AM 93.2 °F 39.2 °F 15% 29.86 in - Variable 6.9 mph - N/A   Clear
12:20 PM 95.0 °F 41.0 °F 15% 29.86 in - NE 9.2 mph - N/A   Clear
12:50 PM 95.0 °F 39.2 °F 14% 29.86 in - East 8.1 mph - N/A   Clear
1:20 PM 96.8 °F 39.2 °F 14% 29.83 in - ENE 4.6 mph - N/A   Clear
1:50 PM 98.6 °F 37.4 °F 12% 29.83 in - East 8.1 mph - N/A   Clear
2:20 PM 98.6 °F 37.4 °F 12% 29.80 in - Variable 5.8 mph - N/A   Clear
2:50 PM 102.2 °F 33.8 °F 9% 29.80 in - SW 16.1 mph - N/A   Clear
3:00 PM 101 °F 31 °F 4% 29.66 in 12 mi SW 16.1 mph - -  
3:20 PM 100.4 °F 32.0 °F 9% 29.80 in - SW 19.6 mph - N/A   Clear
3:50 PM 100.4 °F 33.8 °F 10% 29.80 in - SSW 16.1 mph - N/A   Clear
4:20 PM 98.6 °F 33.8 °F 10% 29.80 in - SSW 16.1 mph - N/A   Clear
4:50 PM 98.6 °F 30.2 °F 9% 29.80 in - SSW 16.1 mph - N/A   Clear
5:20 PM 96.8 °F 32.0 °F 10% 29.80 in - South 15.0 mph - N/A   Clear
5:50 PM 95.0 °F 32.0 °F 11% 29.80 in - SSW 16.1 mph - N/A   Clear
6:20 PM 93.2 °F 32.0 °F 11% 29.83 in - SSW 15.0 mph - N/A   Clear
6:50 PM 91.4 °F 32.0 °F 12% 29.83 in - SSW 13.8 mph - N/A   Clear
7:20 PM 89.6 °F 32.0 °F 13% 29.83 in - SSW 12.7 mph - N/A   Clear
7:50 PM 87.8 °F 35.6 °F 16% 29.86 in - SSW 10.4 mph - N/A   Clear
8:20 PM 84.2 °F 33.8 °F 16% 29.86 in - SW 9.2 mph - N/A   Clear
8:50 PM 84.2 °F 35.6 °F 18% 29.86 in - WSW 8.1 mph - N/A   Clear
9:00 PM 83 °F 35 °F 10% 29.72 in 12 mi WSW 8.1 mph - -  
9:20 PM 82.4 °F 35.6 °F 19% 29.86 in - WSW 5.8 mph - N/A   Clear
9:50 PM 82.4 °F 39.2 °F 21% 29.86 in - WSW 8.1 mph - N/A   Clear
10:20 PM 82.4 °F 39.2 °F 21% 29.86 in - WSW 8.1 mph - N/A   Clear
10:50 PM 82.4 °F 41.0 °F 23% 29.86 in - WSW 6.9 mph - N/A   Clear
11:20 PM 82.4 °F 41.0 °F 23% 29.86 in - WSW 8.1 mph - N/A   Clear
11:50 PM 82.4 °F 42.8 °F 25% 29.86 in - WSW 6.9 mph - N/A   Clear